QPF
0.00 0.00 0.00 0.00 0.00 0.00 0.00 0.00 0.00 0.00 0.00 0.00 0.00 0.01 0.01 0.01 0.01 0.01 0.01 0.00 0.01 0.00
0.00 0.00 0.00 0.00 0.00 0.00 0.00 0.00 0.00 0.01 0.01 0.01 0.00 0.02 0.04 0.04 0.03 0.02 0.00 0.01 0.01 0.01
0.00 0.00 0.00 0.00 0.00 0.00 0.00 0.00 0.00 0.00 0.00 0.00 0.00 0.02 0.05 0.04 0.05 0.02 0.01 0.02 0.02 0.01
0.00 0.00 0.00 0.00 0.00 0.00 0.00 0.00 0.00 0.00 0.00 0.00 0.00 0.01 0.04 0.06 0.02 0.01 0.02 0.02 0.01 0.00
0.00 0.00 0.00 0.00 0.00 0.00 0.00 0.00 0.00 0.00 0.00 0.00 0.00 0.01 0.04 0.03 0.02 0.02 0.02 0.04 0.03 0.01
0.00 0.00 0.00 0.00 0.00 0.00 0.00 0.00 0.00 0.00 0.00 0.00 0.00 0.01 0.02 0.00 0.00 0.01 0.01 0.03 0.02 0.01
0.00 0.00 0.00 0.00 0.00 0.00 0.00 0.00 0.00 0.00 0.00 0.00 0.00 0.00 0.00 0.00 0.00 0.00 0.00 0.00 0.00 0.00
0.00 0.00 0.00 0.00 0.00 0.00 0.00 0.00 0.00 0.00 0.00 0.00 0.00 0.00 0.00 0.00 0.00 0.00 0.00 0.00 0.00 0.00
0.00 0.00 0.00 0.00 0.00 0.00 0.00 0.00 0.00 0.00 0.00 0.00 0.00 0.00 0.00 0.00 0.00 0.00 0.00 0.00 0.00 0.00
0.00 0.00 0.00 0.00 0.00 0.00 0.00 0.00 0.00 0.00 0.00 0.00 0.00 0.00 0.00 0.00 0.00 0.00 0.00 0.00 0.00 0.00
0.00 0.00 0.00 0.00 0.00 0.00 0.00 0.00 0.00 0.00 0.00 0.00 0.00 0.00 0.00 0.00 0.00 0.00 0.00 0.00 0.00 0.00
0.00 0.00 0.00 0.00 0.00 0.00 0.00 0.00 0.00 0.00 0.00 0.00 0.00 0.00 0.00 0.00 0.00 0.00 0.00 0.00 0.00 0.00
0.00 0.00 0.00 0.00 0.00 0.00 0.00 0.00 0.00 0.00 0.00 0.00 0.00 0.00 0.00 0.00 0.00 0.00 0.00 0.00 0.00 0.00
0.00 0.00 0.00 0.00 0.00 0.00 0.00 0.00 0.00 0.00 0.00 0.00 0.00 0.00 0.00 0.00 0.00 0.00 0.00 0.00 0.00 0.00
MSLP
1011.19 1011.47 1011.83 1012.23 1012.55 1012.82 1013.32 1013.48 1013.67 1013.84 1013.95 1014.12 1014.23 1014.67 1015.04 1015.66 1016.24 1016.83 1017.36 1017.68 1017.98 1018.35
1011.65 1011.71 1011.93 1012.23 1012.58 1012.90 1013.06 1013.25 1013.50 1013.78 1013.91 1014.15 1014.36 1014.67 1015.07 1015.56 1016.13 1016.65 1017.02 1017.48 1017.88 1018.15
1011.76 1011.70 1012.05 1012.41 1012.82 1013.06 1013.29 1013.58 1013.79 1013.93 1014.04 1014.23 1014.40 1014.60 1014.96 1015.51 1015.87 1016.29 1016.75 1017.13 1017.70 1018.14
1011.92 1012.11 1012.57 1012.97 1013.29 1013.48 1013.58 1013.81 1014.10 1014.14 1014.18 1014.29 1014.47 1014.65 1014.91 1015.38 1015.77 1016.23 1016.60 1016.99 1017.44 1017.95
1012.37 1012.73 1013.09 1013.55 1013.74 1013.89 1013.91 1014.00 1014.18 1014.26 1014.27 1014.30 1014.42 1014.65 1014.83 1015.38 1015.75 1016.13 1016.43 1016.78 1017.30 1017.42
1012.85 1013.11 1013.35 1013.72 1013.99 1014.10 1014.17 1014.34 1014.36 1014.33 1014.39 1014.42 1014.50 1014.61 1014.89 1015.46 1015.91 1016.36 1016.72 1017.03 1017.28 1017.65
1013.12 1013.33 1013.67 1013.97 1014.16 1014.38 1014.42 1014.50 1014.50 1014.45 1014.37 1014.46 1014.64 1015.00 1015.43 1015.97 1016.47 1016.95 1017.35 1017.67 1017.97 1018.27
1013.45 1013.64 1014.14 1014.23 1014.41 1014.67 1014.78 1014.83 1014.81 1014.66 1014.70 1014.81 1015.08 1015.44 1015.87 1016.50 1017.06 1017.60 1018.06 1018.24 1018.73 1018.95
1013.76 1014.11 1014.50 1014.60 1014.81 1015.00 1015.14 1015.11 1015.17 1015.16 1015.24 1015.52 1015.82 1016.07 1016.49 1016.98 1017.64 1018.00 1018.58 1018.85 1019.42 1019.59
1014.11 1014.46 1014.81 1014.94 1015.24 1015.51 1015.62 1015.68 1015.78 1015.81 1016.02 1016.31 1016.63 1016.94 1017.27 1017.63 1018.36 1018.91 1019.57 1020.00 1020.36 1020.63
1014.27 1014.73 1015.18 1015.46 1015.73 1016.05 1016.09 1016.30 1016.58 1016.69 1016.93 1017.21 1017.64 1017.83 1018.17 1018.67 1019.32 1019.93 1020.41 1020.77 1021.03 1021.19
1014.49 1015.07 1015.54 1015.95 1016.18 1016.47 1016.57 1016.97 1017.33 1017.61 1017.80 1018.10 1018.55 1018.68 1019.00 1019.31 1019.89 1020.59 1021.13 1021.64 1021.85 1022.02
1014.81 1015.41 1015.90 1016.29 1016.57 1016.90 1017.16 1017.58 1017.96 1018.39 1018.70 1019.03 1019.27 1019.62 1019.72 1019.97 1020.58 1021.31 1022.04 1022.51 1022.73 1022.72
1015.17 1015.74 1016.23 1016.56 1016.89 1017.28 1017.66 1018.11 1018.49 1019.06 1019.40 1019.67 1019.89 1020.14 1020.30 1020.61 1021.12 1021.83 1022.60 1023.24 1023.54 1023.58
Thickness
5653 5650 5645 5639 5634 5628 5621 5619 5617 5615 5614 5612 5609 5606 5604 5601 5596 5593 5590 5589 5588 5586
5644 5643 5639 5634 5628 5622 5620 5616 5613 5610 5608 5606 5604 5602 5601 5597 5593 5590 5589 5588 5586 5585
5638 5638 5633 5627 5621 5617 5612 5608 5605 5603 5601 5599 5597 5597 5596 5594 5593 5591 5589 5587 5585 5582
5633 5630 5625 5618 5613 5609 5606 5602 5598 5596 5594 5591 5589 5589 5592 5591 5591 5589 5587 5585 5583 5580
5625 5621 5616 5610 5606 5603 5600 5598 5594 5591 5588 5584 5583 5585 5586 5587 5587 5587 5586 5584 5581 5581
5616 5614 5611 5606 5601 5599 5597 5593 5591 5588 5583 5579 5579 5582 5584 5584 5583 5582 5580 5578 5578 5577
5611 5609 5606 5602 5598 5595 5593 5591 5589 5587 5585 5581 5580 5579 5579 5578 5576 5575 5573 5570 5569 5568
5604 5604 5599 5597 5594 5591 5589 5588 5586 5586 5585 5582 5580 5578 5577 5575 5572 5568 5565 5565 5562 5561
5599 5597 5594 5592 5589 5588 5586 5585 5583 5584 5582 5579 5577 5576 5573 5570 5566 5564 5561 5558 5555 5555
5593 5592 5589 5589 5585 5583 5581 5580 5578 5578 5576 5573 5571 5569 5567 5564 5560 5557 5552 5549 5547 5545
5590 5588 5584 5583 5580 5577 5576 5575 5572 5572 5569 5567 5564 5563 5561 5558 5553 5549 5546 5543 5541 5539
5584 5582 5579 5577 5576 5574 5573 5570 5567 5565 5563 5561 5558 5557 5555 5554 5550 5544 5540 5535 5532 5530
5577 5576 5574 5572 5571 5569 5568 5565 5562 5559 5557 5555 5553 5551 5551 5549 5543 5537 5531 5526 5523 5521
5571 5571 5569 5569 5566 5564 5564 5561 5559 5554 5552 5551 5549 5547 5545 5542 5537 5531 5524 5518 5514 5513